• In Belarus
  • List of Countries
  • For 7 days
  • Water Temperature
  • Weather Map
  • Weather Widgets
  • user-avatar
    Login

    Hourly Weather Lankaran

    Today, 17 February, Monday

    Time Temperature Precipitation Wind Pressure Humidity
    00:00 -4°C° 0.6 mm 2 mps 637 mmHg 95%
    01:00 -5°C° 0.7 mm 2 mps 637 mmHg 95%
    02:00 -5°C° 0.7 mm 2 mps 637 mmHg 96%
    03:00 -6°C° 0 mm 3 mps 637 mmHg 96%
    04:00 -6°C° 0.7 mm 3 mps 637 mmHg 96%
    05:00 -6°C° 0.7 mm 2 mps 637 mmHg 96%
    06:00 -6°C° 0.7 mm 2 mps 637 mmHg 96%
    07:00 -6°C° 0.6 mm 2 mps 637 mmHg 95%
    08:00 -6°C° 0.6 mm 2 mps 637 mmHg 94%
    09:00 -6°C° 0 mm 2 mps 638 mmHg 93%
    10:00 -5°C° 0.5 mm 2 mps 638 mmHg 94%
    11:00 -5°C° 0.5 mm 2 mps 638 mmHg 94%
    12:00 -5°C° 0.5 mm 2 mps 638 mmHg 94%
    13:00 -5°C° 0.2 mm 2 mps 638 mmHg 92%
    14:00 -5°C° 0.2 mm 2 mps 638 mmHg 90%
    15:00 -5°C° 0.2 mm 2 mps 637 mmHg 88%
    16:00 -5°C° 0.2 mm 2 mps 638 mmHg 90%
    17:00 -4°C° 0.2 mm 1 mps 638 mmHg 91%
    18:00 -4°C° 0.2 mm 1 mps 638 mmHg 93%
    19:00 -4°C° 0.1 mm 1 mps 638 mmHg 91%
    20:00 -6°C° 0.1 mm 1 mps 638 mmHg 90%
    21:00 -6°C° 0.1 mm 0 mps 638 mmHg 89%
    22:00 -6°C° 0 mm 0 mps 638 mmHg 88%
    23:00 -6°C° 0 mm 0 mps 638 mmHg 87%

    Tomorrow, 18 February, Tuesday

    Time Temperature Precipitation Wind Pressure Humidity
    00:00 -6°C° 0 mm 1 mps 638 mmHg 86%
    01:00 -7°C° 0 mm 1 mps 638 mmHg 86%
    02:00 -7°C° 0 mm 1 mps 638 mmHg 85%
    03:00 -7°C° 0 mm 1 mps 638 mmHg 85%
    04:00 -7°C° 0 mm 1 mps 638 mmHg 85%
    05:00 -7°C° 0 mm 1 mps 638 mmHg 84%
    06:00 -7°C° 0 mm 1 mps 638 mmHg 84%
    07:00 -4°C° 0 mm 1 mps 638 mmHg 82%
    08:00 -3°C° 0 mm 1 mps 639 mmHg 81%
    09:00 -2°C° 0 mm 1 mps 640 mmHg 80%
    10:00 -1°C° 0 mm 1 mps 640 mmHg 82%
    11:00 -1°C° 0 mm 1 mps 639 mmHg 85%
    12:00 0°C° 0 mm 1 mps 639 mmHg 87%
    13:00 0°C° 0 mm 1 mps 639 mmHg 89%
    14:00 0°C° 0 mm 1 mps 639 mmHg 90%
    15:00 +1°C° 0 mm 1 mps 638 mmHg 91%
    16:00 0°C° 0 mm 1 mps 638 mmHg 92%
    17:00 -1°C° 0 mm 1 mps 638 mmHg 93%
    18:00 -1°C° 0 mm 1 mps 637 mmHg 94%
    19:00 -1°C° 0 mm 1 mps 637 mmHg 92%
    20:00 -1°C° 0 mm 1 mps 637 mmHg 90%
    21:00 -1°C° 0 mm 1 mps 637 mmHg 88%
    22:00 -2°C° 0 mm 1 mps 637 mmHg 87%
    23:00 -2°C° 0 mm 1 mps 636 mmHg 86%

    Day after tomorrow, 19 February, Wednesday

    Time Temperature Precipitation Wind Pressure Humidity
    00:00 -2°C° 0 mm 1 mps 636 mmHg 85%
    01:00 -2°C° 0 mm 1 mps 636 mmHg 84%
    02:00 -1°C° 0 mm 1 mps 635 mmHg 84%
    03:00 -1°C° 0 mm 1 mps 635 mmHg 83%
    04:00 -1°C° 0 mm 1 mps 634 mmHg 83%
    05:00 -1°C° 0 mm 1 mps 634 mmHg 83%
    06:00 -1°C° 0 mm 1 mps 634 mmHg 83%
    07:00 0°C° 0 mm 1 mps 634 mmHg 85%
    08:00 +1°C° 0 mm 1 mps 634 mmHg 86%
    09:00 +2°C° 0 mm 1 mps 635 mmHg 87%
    10:00 +2°C° 0 mm 1 mps 634 mmHg 86%
    11:00 +2°C° 0 mm 2 mps 634 mmHg 86%
    12:00 +3°C° 0 mm 2 mps 634 mmHg 85%
    13:00 +3°C° 0 mm 2 mps 634 mmHg 86%
    14:00 +3°C° 0 mm 2 mps 633 mmHg 86%
    15:00 +3°C° 0 mm 2 mps 633 mmHg 87%
    16:00 +2°C° 0 mm 2 mps 632 mmHg 88%
    17:00 +2°C° 0 mm 1 mps 632 mmHg 89%
    18:00 +1°C° 0 mm 1 mps 631 mmHg 90%
    19:00 +1°C° 0 mm 1 mps 631 mmHg 90%
    20:00 +1°C° 0 mm 1 mps 631 mmHg 90%
    21:00 0°C° 0 mm 0 mps 630 mmHg 90%
    22:00 +1°C° 0.8 mm 1 mps 630 mmHg 91%
    23:00 +1°C° 0.8 mm 1 mps 630 mmHg 92%

    20 February, Thursday

    Time Temperature Precipitation Wind Pressure Humidity
    00:00 +2°C° 0.8 mm 1 mps 630 mmHg 93%
    01:00 +1°C° 0.9 mm 1 mps 630 mmHg 95%
    02:00 +1°C° 0.9 mm 1 mps 629 mmHg 96%
    03:00 0°C° 0.9 mm 0 mps 629 mmHg 97%
    04:00 +1°C° 0 mm 1 mps 629 mmHg 97%
    05:00 +1°C° 0 mm 1 mps 629 mmHg 98%
    06:00 +1°C° 0 mm 1 mps 629 mmHg 98%
    07:00 +1°C° 0 mm 1 mps 629 mmHg 98%
    08:00 +1°C° 0 mm 1 mps 629 mmHg 98%
    09:00 +1°C° 0 mm 1 mps 629 mmHg 97%
    10:00 +2°C° 0 mm 1 mps 629 mmHg 96%
    11:00 +1°C° 0 mm 2 mps 629 mmHg 95%
    12:00 +2°C° 0 mm 2 mps 629 mmHg 94%
    13:00 +2°C° 0 mm 1 mps 629 mmHg 95%
    14:00 +2°C° 0 mm 1 mps 628 mmHg 96%
    15:00 +2°C° 0 mm 1 mps 628 mmHg 96%
    16:00 +2°C° 0.1 mm 1 mps 628 mmHg 97%
    17:00 +1°C° 0.1 mm 1 mps 628 mmHg 97%
    18:00 +1°C° 0.1 mm 1 mps 628 mmHg 98%
    19:00 +1°C° 0 mm 1 mps 628 mmHg 98%
    20:00 0°C° 0 mm 0 mps 628 mmHg 98%
    21:00 0°C° 0 mm 0 mps 628 mmHg 98%
    22:00 0°C° 0 mm 0 mps 628 mmHg 98%
    23:00 0°C° 0 mm 0 mps 628 mmHg 97%

    21 February, Friday

    Time Temperature Precipitation Wind Pressure Humidity
    00:00 0°C° 0 mm 0 mps 628 mmHg 97%
    01:00 0°C° 0 mm 0 mps 628 mmHg 97%
    02:00 0°C° 0 mm 0 mps 628 mmHg 96%
    03:00 -1°C° 0 mm 0 mps 628 mmHg 95%
    04:00 -1°C° 0 mm 0 mps 628 mmHg 94%
    05:00 -1°C° 0 mm 0 mps 629 mmHg 93%
    06:00 -1°C° 0 mm 0 mps 629 mmHg 92%
    07:00 +1°C° 0 mm 1 mps 629 mmHg 88%
    08:00 +2°C° 0 mm 1 mps 630 mmHg 84%
    09:00 +3°C° 0 mm 1 mps 631 mmHg 81%
    16:00 +3°C° 0 mm 2 mps 631 mmHg 79%
    17:00 +3°C° 0 mm 2 mps 631 mmHg 83%
    18:00 +2°C° 0 mm 2 mps 631 mmHg 86%
    19:00 +1°C° 0 mm 2 mps 631 mmHg 86%
    20:00 +1°C° 0 mm 2 mps 631 mmHg 87%
    21:00 +2°C° 0 mm 1 mps 631 mmHg 87%
    22:00 +1°C° 0 mm 1 mps 631 mmHg 87%
    23:00 +1°C° 0 mm 1 mps 631 mmHg 87%

    22 February, Saturday

    Time Temperature Precipitation Wind Pressure Humidity
    00:00 +1°C° 0 mm 1 mps 631 mmHg 86%
    01:00 +1°C° 0 mm 1 mps 631 mmHg 86%
    02:00 +1°C° 0 mm 1 mps 631 mmHg 86%
    03:00 +1°C° 0 mm 1 mps 631 mmHg 85%
    04:00 +1°C° 0 mm 1 mps 631 mmHg 85%
    05:00 +1°C° 0 mm 1 mps 631 mmHg 85%
    06:00 +1°C° 0 mm 1 mps 631 mmHg 84%
    07:00 +1°C° 0 mm 1 mps 632 mmHg 81%
    08:00 +1°C° 0 mm 2 mps 633 mmHg 78%
    09:00 +2°C° 0 mm 2 mps 633 mmHg 75%
    10:00 +3°C° 0 mm 2 mps 633 mmHg 73%
    11:00 +4°C° 0 mm 2 mps 633 mmHg 72%
    12:00 +4°C° 0 mm 2 mps 633 mmHg 71%
    13:00 +4°C° 0 mm 2 mps 633 mmHg 75%
    14:00 +4°C° 0 mm 2 mps 632 mmHg 78%
    15:00 +3°C° 0 mm 2 mps 632 mmHg 82%
    16:00 +3°C° 0 mm 2 mps 632 mmHg 86%
    17:00 +2°C° 0 mm 2 mps 632 mmHg 90%
    18:00 +2°C° 0 mm 1 mps 632 mmHg 94%
    19:00 +2°C° 0 mm 1 mps 632 mmHg 94%
    20:00 +2°C° 0 mm 1 mps 632 mmHg 94%
    21:00 +2°C° 0 mm 1 mps 632 mmHg 93%
    22:00 +1°C° 0 mm 1 mps 631 mmHg 93%
    23:00 0°C° 0 mm 0 mps 631 mmHg 92%
    Show more